Wind_Speed
53 53 51 50 49 47 48 46 48 53 53 48 45 44 39 43 40 36 34 37 38 38 37 37 37 36 34 33 33 32 30 31 31 29 31 34 29 27
52 50 50 49 53 50 47 49 51 53 57 54 49 37 41 47 48 42 38 39 38 39 39 39 39 38 37 36 36 34 33 33 30 29 33 36 34 29
47 49 50 47 44 45 44 47 50 49 54 54 51 44 52 52 55 50 46 44 41 38 39 38 42 41 38 38 38 36 37 36 32 33 34 36 37 34
43 44 45 46 44 42 34 35 34 42 45 49 45 44 48 56 58 44 52 50 47 44 42 40 43 42 38 41 39 38 40 38 37 36 38 39 42 41
39 41 42 43 43 45 47 42 37 37 37 38 38 41 44 37 44 50 53 57 53 51 47 46 46 45 43 44 42 40 43 45 41 42 43 43 42 36
35 35 34 35 36 40 43 45 44 47 45 44 44 43 41 41 43 45 49 52 41 46 53 50 50 47 50 46 44 43 46 47 46 44 46 45 46 47
30 31 31 31 31 34 37 38 38 39 40 42 44 46 52 37 38 34 41 39 47 46 48 60 56 56 64 58 55 53 51 43 44 45 49 50 52 42
29 29 30 31 32 34 36 37 36 38 39 40 42 43 47 49 47 43 48 50 51 48 52 53 55 62 65 66 60 56 54 46 48 48 50 54 42 36
27 27 27 28 29 31 32 33 33 34 35 38 41 46 47 49 46 49 39 41 47 49 49 55 58 65 63 62 61 57 56 54 55 53 54 48 44 42
31 31 29 28 27 25 23 29 34 29 32 35 37 34 40 46 47 53 50 44 48 50 46 54 54 55 49 53 57 54 55 54 52 50 53 55 49 40
24 22 26 24 26 27 27 33 28 28 35 29 35 35 38 45 40 41 43 50 47 54 53 54 52 54 51 49 52 56 52 54 49 56 49 48 48 44
22 23 21 23 25 18 21 26 23 22 23 31 39 37 39 34 38 37 41 47 51 55 57 55 57 56 57 57 56 59 60 56 56 55 53 45 46 49
13 21 20 18 20 20 24 26 26 27 31 33 39 41 41 42 46 49 50 56 60 63 62 60 62 62 63 66 69 65 60 58 58 58 52 50 50 51
16 17 20 22 23 24 25 30 33 36 37 40 42 43 46 50 53 56 59 59 61 65 66 65 70 72 74 76 73 72 69 67 63 60 58 52 58 54
23 24 24 27 29 33 34 37 38 40 42 44 46 50 52 56 58 62 64 66 69 71 72 73 75 68 58 61 66 68 68 72 64 59 54 59 61 56
28 29 29 31 34 36 39 42 45 47 48 48 47 47 48 50 53 56 60 62 66 66 65 65 65 69 70 77 75 60 47 56 57 51 55 51 62 61
30 32 33 33 32 31 30 30 30 31 34 37 40 43 44 45 45 47 48 50 53 56 59 62 55 53 58 63 60 56 67 66 46 46 46 47 60 60
19 20 21 22 23 23 24 26 28 31 31 29 27 28 29 29 33 37 42 45 48 49 50 54 55 53 54 51 46 44 42 45 65 50 40 49 59 54
18 18 19 21 21 20 21 22 21 20 20 21 23 27 32 34 37 39 40 42 44 45 45 43 45 46 43 41 38 33 31 32 28 41 40 48 50 49
19 20 19 18 17 18 16 15 17 18 19 21 26 31 34 39 42 42 40 38 39 41 40 40 39 32 39 38 31 26 28 33 32 33 39 45 45 44
17 16 16 17 17 16 14 17 18 18 20 24 28 32 35 41 41 38 32 32 35 34 35 34 27 34 36 30 30 23 23 30 36 35 37 44 46 47
15 16 18 18 17 15 15 17 20 21 22 25 28 31 34 38 36 33 29 29 28 24 26 22 31 30 27 22 20 19 21 27 34 36 40 42 42 41
14 16 16 16 17 15 16 18 20 21 23 25 28 30 33 34 32 30 28 24 23 22 22 24 24 21 21 21 16 13 17 21 29 34 42 43 38 31
Wind_Direction
240 243 244 246 246 251 251 255 254 262 259 269 264 264 251 264 247 250 249 249 250 253 256 257 259 264 268 273 278 283 288 292 296 301 316 318 306 297
240 243 246 248 248 251 254 254 255 259 258 265 259 266 253 257 256 244 248 249 249 252 255 257 258 262 265 270 275 281 286 287 291 294 307 308 309 298
242 245 246 249 250 253 256 259 255 255 256 262 268 264 264 255 258 251 243 248 250 250 254 256 260 260 262 268 271 277 282 285 289 290 305 302 305 299
239 244 246 248 248 247 260 259 259 257 259 254 267 264 269 265 262 259 257 246 246 249 248 250 255 259 260 265 269 274 278 279 279 288 291 297 303 297
238 241 244 245 246 249 250 265 260 258 264 258 267 271 264 269 263 259 263 260 263 246 251 252 255 259 261 264 267 268 271 269 281 280 289 296 298 297
246 245 247 248 251 253 255 259 262 270 271 275 277 271 264 267 268 270 277 272 275 275 248 253 255 258 258 258 260 264 265 269 276 277 279 288 287 292
255 256 255 253 252 253 255 260 260 263 264 263 267 270 269 273 265 283 283 288 272 287 271 247 248 255 255 254 255 258 261 265 268 271 276 279 287 281
247 248 249 247 247 250 254 258 263 265 264 261 266 260 257 267 272 274 282 280 278 292 279 281 248 255 257 262 266 266 261 259 262 262 268 278 279 276
243 244 247 246 247 253 256 257 267 268 268 269 267 265 266 267 275 273 276 281 269 284 286 275 255 256 264 265 265 271 270 267 264 261 269 278 269 274
241 245 243 244 252 258 261 256 257 264 264 256 264 273 274 273 273 276 273 271 278 276 274 278 278 278 275 266 266 269 268 273 272 263 263 278 271 268
234 235 243 243 250 250 259 258 254 261 257 254 259 260 263 270 266 269 270 268 275 277 271 276 282 276 275 266 270 270 267 276 272 260 271 266 264 264
240 243 250 247 256 251 251 246 248 256 262 260 260 261 263 256 259 258 270 275 278 270 273 270 272 271 272 273 271 270 269 271 271 266 268 265 262 259
263 252 229 241 246 236 244 245 263 260 266 264 259 268 264 263 263 262 267 271 271 269 272 272 271 269 265 268 272 270 266 266 269 266 266 261 261 250
246 256 254 254 258 261 267 263 264 267 268 269 272 271 269 268 268 269 272 274 269 270 270 270 271 270 268 267 264 264 264 265 261 260 263 266 256 257
257 260 261 260 262 266 267 266 268 272 273 273 271 273 270 271 273 274 274 274 273 273 275 275 274 271 272 270 265 264 258 258 257 255 260 261 257 251
258 262 264 266 268 270 272 273 274 274 275 276 277 277 276 277 278 278 279 279 277 278 279 279 276 273 272 270 266 271 272 270 256 254 263 256 250 242
262 263 264 266 268 271 274 277 280 284 287 288 288 286 285 287 287 286 287 288 288 288 287 285 285 283 277 273 268 267 263 265 279 259 247 250 249 240
269 272 275 277 279 280 279 280 284 288 289 292 295 302 307 307 304 299 294 289 285 284 285 284 284 287 289 277 263 260 265 254 258 270 251 248 237 223
276 277 277 275 276 282 288 287 289 300 313 314 317 317 315 316 316 314 309 301 296 292 292 288 289 290 288 277 265 252 255 255 252 263 236 224 220 213
275 276 276 277 281 285 287 308 317 315 317 324 327 327 326 328 328 323 318 313 307 300 297 295 296 285 288 282 269 252 254 253 239 237 226 219 209 206
276 277 279 284 291 293 301 318 321 323 330 336 336 334 334 333 330 324 318 315 310 305 303 304 299 298 292 269 255 243 243 251 234 233 226 213 208 206
290 285 280 282 290 291 304 323 331 334 336 339 337 339 339 335 330 324 316 308 309 313 312 303 305 300 286 272 252 235 239 246 234 224 219 216 208 201
292 288 286 288 297 296 310 327 334 335 337 339 340 343 344 338 330 322 316 309 305 304 308 313 310 296 279 271 248 234 237 235 234 232 216 204 191 182
Height
3057 3061 3065 3070 3074 3077 3081 3085 3086 3085 3086 3091 3096 3100 3101 3104 3106 3107 3109 3111 3113 3114 3115 3117 3117 3118 3118 3118 3118 3117 3116 3114 3112 3109 3105 3102 3100 3098
3048 3051 3056 3060 3063 3067 3071 3075 3076 3077 3076 3081 3086 3090 3092 3095 3095 3096 3098 3101 3101 3103 3106 3107 3107 3109 3109 3109 3109 3108 3108 3106 3105 3102 3099 3097 3094 3092
3037 3041 3046 3051 3053 3057 3060 3063 3065 3068 3066 3071 3074 3079 3081 3081 3083 3082 3086 3089 3091 3093 3096 3097 3098 3099 3099 3100 3100 3099 3098 3097 3097 3095 3092 3090 3088 3086
3026 3031 3036 3041 3044 3047 3051 3053 3054 3058 3058 3061 3062 3065 3070 3070 3071 3071 3074 3076 3079 3082 3084 3086 3088 3088 3089 3090 3090 3089 3089 3088 3086 3086 3084 3083 3081 3079
3016 3021 3026 3030 3034 3038 3042 3044 3044 3047 3049 3049 3052 3054 3056 3060 3061 3062 3064 3063 3065 3069 3072 3074 3076 3077 3077 3078 3079 3078 3077 3076 3078 3077 3076 3075 3073 3071
3009 3012 3018 3022 3026 3030 3033 3035 3037 3037 3039 3040 3042 3044 3046 3049 3050 3051 3052 3052 3055 3054 3058 3060 3063 3063 3062 3064 3066 3065 3064 3068 3068 3066 3065 3064 3063 3062
3003 3006 3011 3015 3018 3020 3022 3025 3027 3027 3027 3029 3033 3034 3034 3036 3039 3040 3040 3042 3041 3041 3042 3044 3046 3047 3044 3048 3050 3052 3053 3054 3054 3054 3054 3052 3051 3050
2994 2998 3000 3004 3007 3010 3011 3013 3015 3016 3017 3019 3020 3022 3024 3027 3030 3030 3030 3028 3026 3029 3026 3025 3031 3029 3031 3034 3036 3037 3038 3039 3040 3040 3040 3040 3038 3039
2986 2990 2992 2993 2996 2999 3003 3005 3006 3006 3006 3008 3009 3012 3014 3015 3019 3018 3018 3015 3014 3014 3013 3010 3015 3013 3018 3020 3022 3023 3023 3024 3025 3026 3026 3027 3027 3027
2977 2981 2983 2985 2988 2991 2994 2995 2996 2998 2999 3000 3001 3003 3003 3005 3005 3004 3005 3005 3002 3001 3002 2996 3001 3000 3005 3003 3005 3007 3008 3008 3009 3009 3012 3013 3014 3015
2969 2974 2977 2979 2981 2984 2985 2986 2989 2989 2991 2992 2994 2994 2995 2994 2995 2994 2993 2992 2990 2989 2990 2989 2988 2986 2987 2987 2989 2989 2992 2993 2994 2995 2997 2998 3000 3001
2963 2967 2969 2972 2974 2976 2978 2979 2982 2981 2983 2983 2985 2986 2987 2987 2987 2985 2983 2981 2978 2974 2976 2975 2974 2972 2968 2970 2973 2974 2974 2976 2977 2978 2979 2981 2983 2984
2963 2964 2968 2970 2971 2972 2974 2975 2976 2977 2977 2977 2977 2977 2976 2976 2976 2974 2973 2970 2966 2963 2960 2956 2955 2952 2950 2950 2950 2954 2957 2958 2958 2959 2961 2964 2966 2968
2960 2962 2963 2965 2966 2968 2968 2968 2968 2968 2967 2967 2966 2966 2965 2964 2963 2961 2958 2954 2950 2945 2943 2938 2932 2932 2929 2927 2927 2930 2932 2937 2938 2940 2942 2945 2947 2950
2958 2958 2958 2959 2959 2959 2959 2959 2957 2957 2956 2956 2955 2954 2952 2949 2947 2944 2941 2938 2934 2930 2924 2918 2911 2910 2906 2904 2902 2905 2906 2911 2916 2916 2921 2926 2929 2931
2952 2952 2952 2952 2952 2952 2951 2950 2948 2947 2945 2943 2941 2938 2936 2933 2929 2924 2919 2915 2910 2909 2906 2902 2896 2890 2884 2884 2885 2884 2888 2890 2891 2896 2902 2904 2910 2914
2945 2945 2945 2944 2943 2942 2941 2939 2937 2936 2934 2931 2928 2924 2921 2917 2913 2909 2904 2898 2892 2887 2883 2877 2874 2869 2864 2862 2861 2862 2866 2876 2877 2877 2882 2889 2894 2900
2937 2937 2937 2936 2935 2934 2933 2931 2928 2926 2924 2921 2917 2913 2909 2904 2899 2895 2888 2882 2875 2871 2865 2859 2854 2848 2843 2841 2842 2847 2849 2850 2860 2865 2864 2871 2879 2888
2931 2931 2930 2929 2928 2927 2926 2925 2923 2919 2914 2910 2906 2902 2897 2891 2884 2877 2870 2863 2858 2853 2848 2844 2840 2835 2830 2826 2826 2829 2835 2839 2841 2849 2852 2861 2870 2878
2926 2925 2924 2923 2923 2922 2920 2916 2913 2909 2905 2901 2896 2889 2882 2875 2868 2862 2855 2849 2844 2840 2835 2832 2828 2826 2822 2818 2813 2815 2821 2828 2832 2840 2845 2854 2863 2872
2921 2920 2919 2918 2917 2915 2912 2909 2905 2900 2896 2890 2885 2879 2872 2865 2859 2852 2846 2841 2835 2830 2826 2822 2820 2818 2813 2808 2807 2807 2813 2821 2827 2833 2839 2847 2854 2861
2914 2914 2914 2913 2911 2908 2905 2901 2896 2891 2887 2883 2879 2873 2866 2859 2851 2845 2840 2836 2831 2824 2819 2817 2814 2809 2805 2802 2800 2802 2808 2814 2821 2826 2834 2841 2849 2855
2910 2909 2907 2905 2903 2900 2897 2893 2890 2885 2881 2876 2872 2866 2860 2853 2845 2839 2832 2826 2822 2818 2814 2812 2808 2805 2801 2797 2798 2798 2803 2809 2816 2822 2828 2835 2842 2849